| time (UTC) | temp C | wind direction | speed KPH | gust KPH | rain 1hr cm | rain 24hr cm | rain mn cm | humidity % | barometer mb |
| 20260504215945 | 25 | 58 | 3.2 | 8.0 | 0.00 | 0.00 | 0.00 | 28 | 1008.5 |
| 20260504214445 | 25 | 58 | 4.8 | 12.9 | 0.00 | 0.00 | 0.00 | 27 | 1008.5 |
| 20260504212947 | 25 | 43 | 4.8 | 9.7 | 0.00 | 0.00 | 0.00 | 26 | 1008.7 |
| 20260504211446 | 25 | 35 | 4.8 | 11.3 | 0.00 | 0.00 | 0.00 | 28 | 1008.9 |
| 20260504205946 | 25 | 47 | 3.2 | 11.3 | 0.00 | 0.00 | 0.00 | 29 | 1008.8 |
| 20260504204445 | 25 | 137 | 3.2 | 17.7 | 0.00 | 0.00 | 0.00 | 28 | 1008.9 |
| 20260504202945 | 25 | 130 | 4.8 | 12.9 | 0.00 | 0.00 | 0.00 | 27 | 1008.9 |
| 20260504201446 | 25 | 83 | 3.2 | 12.9 | 0.00 | 0.00 | 0.00 | 29 | 1009.0 |
| 20260504195946 | 24 | 143 | 3.2 | 11.3 | 0.00 | 0.00 | 0.00 | 29 | 1009.0 |
| 20260504194445 | 24 | 12 | 4.8 | 16.1 | 0.00 | 0.00 | 0.00 | 31 | 1009.0 |
| 20260504192947 | 23 | 58 | 6.4 | 16.1 | 0.00 | 0.00 | 0.00 | 32 | 1009.1 |
| 20260504191447 | 23 | 148 | 4.8 | 11.3 | 0.00 | 0.00 | 0.00 | 32 | 1009.4 |
| 20260504185947 | 23 | 120 | 6.4 | 14.5 | 0.00 | 0.00 | 0.00 | 32 | 1009.5 |
| 20260504184446 | 23 | 42 | 4.8 | 9.7 | 0.00 | 0.00 | 0.00 | 33 | 1009.7 |
| 20260504182944 | 22 | 50 | 6.4 | 16.1 | 0.00 | 0.00 | 0.00 | 32 | 1009.6 |
| 20260504181446 | 22 | 146 | 4.8 | 16.1 | 0.00 | 0.00 | 0.00 | 36 | 1009.6 |
| 20260504175948 | 21 | 58 | 4.8 | 17.7 | 0.00 | 0.00 | 0.00 | 35 | 1009.7 |
| 20260504174448 | 21 | 351 | 3.2 | 11.3 | 0.00 | 0.00 | 0.00 | 36 | 1009.6 |
| 20260504172945 | 21 | 49 | 3.2 | 11.3 | 0.00 | 0.00 | 0.00 | 37 | 1009.7 |
| 20260504171446 | 20 | 47 | 4.8 | 14.5 | 0.00 | 0.00 | 0.00 | 42 | 1009.7 |
| 20260504081447 | 10 | 160 | 0.0 | 0.0 | 0.00 | 0.00 | 0.00 | 76 | 1008.7 |
| 20260504045949 | 13 | 141 | 0.0 | 0.0 | 0.00 | 0.00 | 0.00 | 64 | 1009.0 |
| 20260504044449 | 14 | 141 | 0.0 | 0.0 | 0.00 | 0.00 | 0.00 | 62 | 1009.1 |
| 20260504042949 | 14 | 141 | 0.0 | 0.0 | 0.00 | 0.00 | 0.00 | 62 | 1009.1 |
| 20260504041449 | 15 | 176 | 0.0 | 0.0 | 0.00 | 0.00 | 0.00 | 60 | 1009.0 |
| 20260504035949 | 16 | 176 | 0.0 | 0.0 | 0.00 | 0.00 | 0.00 | 57 | 1009.1 |
| 20260504034447 | 17 | 176 | 0.0 | 0.0 | 0.00 | 0.00 | 0.00 | 54 | 1009.0 |
| 20260504032947 | 18 | 176 | 0.0 | 0.0 | 0.00 | 0.00 | 0.00 | 52 | 1008.8 |
| 20260504031446 | 19 | 177 | 0.0 | 0.0 | 0.00 | 0.00 | 0.00 | 46 | 1008.8 |
| 20260504025947 | 21 | 176 | 0.0 | 1.6 | 0.00 | 0.00 | 0.00 | 40 | 1008.8 |
| 20260504024451 | 22 | 323 | 0.0 | 0.0 | 0.00 | 0.00 | 0.00 | 36 | 1008.8 |
| 20260504022948 | 26 | 324 | 0.0 | 0.0 | 0.00 | 0.00 | 0.00 | 31 | 1008.8 |
| 20260504021449 | 26 | 324 | 0.0 | 0.0 | 0.00 | 0.00 | 0.00 | 27 | 1008.9 |
| 20260504015947 | 27 | 321 | 3.2 | 4.8 | 0.00 | 0.00 | 0.00 | 22 | 1009.0 |
| 20260504014448 | 26 | 309 | 0.0 | 3.2 | 0.00 | 0.00 | 0.00 | 23 | 1009.2 |
| 20260504012947 | 26 | 1 | 1.6 | 4.8 | 0.00 | 0.00 | 0.00 | 24 | 1009.3 |
| 20260504011448 | 27 | 252 | 0.0 | 6.4 | 0.00 | 0.00 | 0.00 | 23 | 1009.4 |
| 20260504005948 | 26 | 308 | 1.6 | 8.0 | 0.00 | 0.00 | 0.00 | 23 | 1009.5 |
| 20260504004446 | 27 | 281 | 4.8 | 9.7 | 0.00 | 0.00 | 0.00 | 21 | 1009.6 |
| 20260504002947 | 27 | 226 | 1.6 | 6.4 | 0.00 | 0.00 | 0.00 | 22 | 1009.7 |
| 20260504001449 | 27 | 345 | 1.6 | 6.4 | 0.00 | 0.00 | 0.00 | 21 | 1009.9 |
| 20260503235951 | 26 | 316 | 0.0 | 11.3 | 0.00 | 0.00 | 0.00 | 22 | 1010.1 |
| 20260503234451 | 26 | 244 | 3.2 | 14.5 | 0.00 | 0.00 | 0.00 | 23 | 1010.2 |
| 20260503232947 | 27 | 203 | 1.6 | 9.7 | 0.00 | 0.00 | 0.00 | 21 | 1010.3 |
| 20260503231449 | 27 | 251 | 3.2 | 8.0 | 0.00 | 0.00 | 0.00 | 21 | 1010.4 |
| 20260503225946 | 27 | 253 | 1.6 | 4.8 | 0.00 | 0.00 | 0.00 | 21 | 1010.7 |
| 20260503224451 | 26 | 77 | 1.6 | 8.0 | 0.00 | 0.00 | 0.00 | 22 | 1010.9 |
| 20260503222950 | 26 | 248 | 1.6 | 11.3 | 0.00 | 0.00 | 0.00 | 22 | 1011.1 |
| 20260503221449 | 25 | 68 | 1.6 | 9.7 | 0.00 | 0.00 | 0.00 | 22 | 1011.4 |